[[{"header":{"parameterUnit":"m.s-1","parameterCategory":2,"la1":30.2991,"la2":30.254,"lo1":-89.0895,"lo2":-89.0444,"dx":0.0017,"dy":0.0017,"nx":28,"ny":28,"refTime":"2022-11-05T15:00:00:Z","depth":"0","parameterNumber":2,"parameterNumberName":"U-component_of_CURRENTS"},"data":[0,0,0,0,0,0,0,0,0,0,0,0,0,0,0,0,0,0,0,0,0,0,0,0,0,0,0,0,0,0,0,0,0,0,0,0,0,0,0,0,0,0,0,0,0,0,0,0,0,0,0,0,0,0,0,0,0,0,0.31,0.3099,0,0.3082,0.3082,0.3082,0.3059,0.3059,0.3059,0.3058,0.3007,0.3006,0.3005,0,0,0,0,0,0,0,0,0,0,0,0,0,0.3099,0.31,0.31,0.3099,0.3099,0.3082,0.3082,0.3082,0.306,0.3059,0.3058,0.3058,0.3007,0.3006,0.3005,0,0,0,0,0,0,0,0,0,0,0,0,0,0.3093,0.31,0.31,0.3085,0.3084,0.3082,0.3082,0.3082,0.306,0.3059,0.3058,0.3058,0.3008,0.3006,0.3005,0.3009,0,0,0.3001,0.3,0,0,0,0,0,0,0,0,0.3094,0.3094,0.3088,0.3086,0.3085,0.3072,0.3063,0.3056,0.306,0.307,0.3058,0.3057,0.3025,0.3023,0.3022,0.3007,0.3005,0.3001,0.3,0.2999,0.2999,0,0,0,0,0,0,0,0.3094,0.3094,0.3094,0.3087,0.3085,0.3075,0.3073,0.3062,0.3052,0.3069,0.3067,0.3064,0.3024,0.3024,0.3021,0.3004,0.3001,0.2999,0.2998,0.2998,0.3034,0.3036,0,0,0,0,0,0,0.3096,0.3095,0.3094,0.3093,0.3087,0.3075,0.3074,0.3077,0.3052,0.3048,0.3064,0.3063,0.3027,0.3023,0.3019,0.306,0.2999,0.2998,0.2997,0.3032,0.3034,0.3036,0,0,0,0,0,0,0.3096,0.3097,0.3095,0.3092,0.3091,0.3076,0.308,0.3077,0.3079,0.3049,0.3044,0.3069,0.3026,0.3021,0.3026,0.3056,0.2997,0.2996,0.303,0.3033,0.3035,0.3117,0,0,0,0,0,0,0.3097,0.3097,0.3106,0.3093,0.3091,0.3109,0.308,0.3077,0.3077,0.3075,0.3052,0.3046,0.3025,0.3029,0.3025,0.3053,0.2995,0.3028,0.3031,0.3034,0.3112,0.3122,0.3131,0,0,0,0,0,0.3097,0.3111,0.3107,0.3107,0.3102,0.311,0.311,0.3096,0.3078,0.3093,0.3077,0.3047,0.3048,0.3029,0.3024,0.3052,0.3026,0.303,0.3034,0.3108,0.312,0.313,0,0,0,0,0,0,0.3109,0.311,0.3104,0.3116,0.312,0.3106,0.3118,0.3102,0.3101,0.3099,0.3065,0.306,0.3079,0.3056,0.3036,0.3075,0.3034,0.3037,0.3092,0.3103,0.3112,0.3099,0.2994,0,0,0,0,0,0.3117,0.3135,0.3128,0.3141,0.3146,0.3133,0.3134,0.3126,0.3119,0.3117,0.3101,0.309,0.3093,0.3089,0.3087,0.3101,0.3088,0.3119,0.3129,0.3137,0.3125,0.3141,0.3151,0.305,0.305,0.305,0,0,0.3124,0.3128,0.3136,0.3146,0.3148,0.3158,0.3133,0.3145,0.3154,0.3112,0.3127,0.3122,0.3106,0.313,0.3136,0.3112,0.3165,0.3142,0.3149,0.3132,0.3147,0.3156,0.3165,0.3052,0.3052,0.3052,0,0,0.3137,0.3155,0.3165,0.3176,0.3184,0.3186,0.3191,0.3188,0.3193,0.3207,0.3186,0.3198,0.3194,0.3194,0.319,0.3248,0.3218,0.3254,0.3284,0.3302,0.331,0.3317,0.3338,0.3346,0.3254,0.3255,0.3255,0,0.3134,0.315,0.3171,0.3181,0.3191,0.32,0.3208,0.3224,0.3222,0.3225,0.3223,0.323,0.3224,0.3242,0.3271,0.3268,0.3272,0.3242,0.3313,0.332,0.3325,0.3345,0.3352,0.3259,0.3258,0.3258,0.3258,0,0.3157,0.3164,0.3177,0.3198,0.3219,0.3234,0.3257,0.3279,0.3287,0.3287,0.3313,0.3316,0.3311,0.3329,0.3317,0.3356,0.3347,0.3327,0.3282,0.334,0.3358,0.3364,0.3265,0.3264,0.3262,0.3261,0,0,0.3122,0.3178,0.3172,0.3178,0.3227,0.3235,0.3284,0.3308,0.3321,0.3346,0.3358,0.3389,0.3383,0.338,0.3377,0.3398,0.3461,0.3383,0.3382,0.3399,0.3508,0.3432,0.3431,0.3455,0.3456,0.3457,0.3514,0,0.3113,0.3135,0.3173,0.3188,0.3198,0.3244,0.3281,0.3313,0.3349,0.3373,0.3392,0.3408,0.3407,0.3413,0.3437,0.3441,0.3477,0.3447,0.3451,0.3451,0.3372,0.3435,0.3206,0.323,0.3519,0.352,0.3521,0,0.3088,0.3112,0.3135,0.3168,0.3177,0.3199,0.3256,0.3293,0.335,0.3374,0.3406,0.3423,0.3456,0.3454,0.3496,0.3476,0.3503,0.3515,0.3517,0.3412,0.3386,0.3214,0.323,0.3142,0.353,0.353,0.3529,0,0.3026,0.3059,0.308,0.3098,0.3161,0.3178,0.3213,0.328,0.3311,0.3377,0.3402,0.3441,0.3461,0.3494,0.3545,0.3517,0.3602,0.3559,0.3523,0.3519,0.3304,0.3277,0.3219,0.361,0.361,0.361,0.361,0,0.2982,0.298,0.3049,0.306,0.3077,0.3134,0.316,0.3213,0.3279,0.3311,0.339,0.3422,0.3474,0.3536,0.3564,0.357,0.3622,0.3533,0.3527,0.3329,0.3306,0.32,0.3171,0.3612,0.3612,0.3611,0.3611,0,0.2901,0.295,0.2973,0.304,0.305,0.3068,0.3122,0.3142,0.3222,0.3275,0.3299,0.3407,0.3454,0.3529,0.3591,0.358,0.3484,0.3614,0.3387,0.3351,0.3149,0.3133,0.2966,0.2887,0.3518,0.3517,0.3515,0,0.2858,0.2868,0.2948,0.2961,0.2988,0.3012,0.3024,0.3103,0.3135,0.3258,0.3278,0.3365,0.3407,0.3484,0.3473,0.3499,0.3426,0.3318,0.3206,0.3111,0.309,0.3001,0.2941,0.2971,0.2965,0.2961,0.2957,0,0.2783,0.2831,0.2865,0.2897,0.2915,0.2928,0.2956,0.2972,0.3072,0.3112,0.319,0.3242,0.331,0.3217,0.3269,0.3251,0.3093,0.3219,0.3165,0.2689,0.2541,0.2469,0.2989,0.2915,0.2919,0.2922,0.2925,0.2926,0.2722,0.2739,0.2792,0.2804,0.2831,0.2831,0.2791,0.2832,0.2852,0.2875,0.3019,0.3005,0.2985,0.2978,0.2971,0.2756,0.2822,0.261,0.2615,0.255,0.24,0.2841,0.2733,0.2736,0.2739,0.2741,0.2743,0,0.2624,0.2652,0.2675,0.2698,0.2679,0.2725,0.272,0.2652,0.2614,0.268,0.2697,0.2599,0.249,0.2458,0.2284,0.2179,0.2093,0.2106,0.1914,0.1901,0.2313,0.2215,0.1934,0.1934,0.1935,0.1935,0.1935,0.1935,0.2572,0.2562,0.2577,0.252,0.2527,0.2438,0.24,0.2333,0.2327,0.2211,0.2127,0.2133,0.2113,0.195,0.1763,0.1718,0.1617,0.1495,0.1611,0.1882,0.1929,0.1974,0.1876,0.1528,0.1528,0.1053,0.1049,0.1046]},{"header":{"parameterUnit":"m.s-1","parameterCategory":2,"la1":30.2991,"la2":30.254,"lo1":-89.0895,"lo2":-89.0444,"dx":0.0017,"dy":0.0017,"nx":28,"ny":28,"refTime":"2022-11-05T15:00:00:Z","depth":"0","parameterNumber":3,"parameterNumberName":"V-component_of_CURRENTS"},"data":[0,0,0,0,0,0,0,0,0,0,0,0,0,0,0,0,0,0,0,0,0,0,0,0,0,0,0,0,0,0,0,0,0,0,0,0,0,0,0,0,0,0,0,0,0,0,0,0,0,0,0,0,0,0,0,0,0,0,-0.0686,-0.0686,0,-0.0721,-0.0722,-0.0722,-0.0717,-0.0717,-0.0716,-0.0715,-0.0708,-0.0708,-0.0709,0,0,0,0,0,0,0,0,0,0,0,0,0,-0.0555,-0.0557,-0.0686,-0.0686,-0.0687,-0.0721,-0.0722,-0.0722,-0.0717,-0.0717,-0.0716,-0.0715,-0.0708,-0.0708,-0.0709,0,0,0,0,0,0,0,0,0,0,0,0,0,-0.0603,-0.0558,-0.0686,-0.0688,-0.0689,-0.0721,-0.0722,-0.0722,-0.0717,-0.0716,-0.0716,-0.0715,-0.0708,-0.0708,-0.0709,-0.0731,0,0,-0.0711,-0.0711,0,0,0,0,0,0,0,0,-0.0601,-0.0608,-0.0687,-0.0688,-0.0689,-0.0714,-0.0673,-0.0723,-0.0718,-0.0707,-0.0715,-0.0714,-0.0706,-0.0707,-0.0717,-0.0731,-0.073,-0.0711,-0.0711,-0.0711,-0.0711,0,0,0,0,0,0,0,-0.0597,-0.0606,-0.07,-0.0688,-0.0689,-0.0667,-0.0674,-0.0682,-0.0711,-0.0708,-0.0707,-0.0711,-0.0706,-0.0716,-0.0716,-0.073,-0.0711,-0.0711,-0.0711,-0.0712,-0.0761,-0.0762,0,0,0,0,0,0,-0.0597,-0.0604,-0.0699,-0.0701,-0.0641,-0.067,-0.0678,-0.0707,-0.0712,-0.0712,-0.0712,-0.0711,-0.0716,-0.0716,-0.0716,-0.0724,-0.0711,-0.0712,-0.0712,-0.076,-0.0761,-0.0762,0,0,0,0,0,0,-0.0595,-0.0607,-0.0698,-0.0651,-0.0661,-0.0674,-0.0706,-0.0708,-0.0717,-0.0715,-0.0714,-0.0719,-0.0715,-0.0715,-0.0723,-0.0724,-0.0712,-0.0713,-0.0759,-0.076,-0.0762,-0.0752,0,0,0,0,0,0,-0.0591,-0.0606,-0.0628,-0.0652,-0.0664,-0.0715,-0.0707,-0.0709,-0.072,-0.0719,-0.0721,-0.0719,-0.0714,-0.0722,-0.0724,-0.0725,-0.0713,-0.0758,-0.0759,-0.0761,-0.0752,-0.0753,-0.0755,0,0,0,0,0,-0.0587,-0.0622,-0.063,-0.0641,-0.0695,-0.0716,-0.072,-0.0725,-0.0722,-0.0729,-0.0729,-0.0719,-0.0735,-0.0724,-0.0725,-0.0726,-0.0757,-0.0759,-0.0761,-0.0751,-0.0753,-0.0755,0,0,0,0,0,0,-0.0572,-0.0626,-0.0634,-0.0683,-0.0696,-0.0715,-0.0723,-0.0729,-0.0737,-0.0734,-0.073,-0.0729,-0.0742,-0.0741,-0.0729,-0.0749,-0.0745,-0.0748,-0.0737,-0.0739,-0.0741,-0.0711,-0.0713,0,0,0,0,0,-0.0582,-0.0628,-0.0655,-0.0693,-0.0698,-0.0711,-0.0721,-0.0726,-0.0736,-0.0739,-0.0741,-0.0745,-0.0755,-0.075,-0.0763,-0.0769,-0.0744,-0.0774,-0.0776,-0.0777,-0.0756,-0.0727,-0.0723,-0.0769,-0.0769,-0.0769,0,0,-0.0587,-0.0622,-0.0647,-0.0693,-0.0702,-0.0702,-0.0715,-0.0732,-0.0733,-0.0737,-0.0741,-0.0757,-0.0762,-0.0771,-0.0776,-0.0765,-0.0754,-0.078,-0.078,-0.0758,-0.0729,-0.0724,-0.0719,-0.0771,-0.077,-0.077,0,0,-0.0582,-0.0646,-0.0655,-0.0672,-0.0691,-0.0708,-0.0712,-0.0731,-0.074,-0.0753,-0.0758,-0.0766,-0.0783,-0.0778,-0.0779,-0.0799,-0.0773,-0.0816,-0.0785,-0.0758,-0.0753,-0.0748,-0.0713,-0.0705,-0.0805,-0.0805,-0.0805,0,-0.0564,-0.0602,-0.0657,-0.0654,-0.0665,-0.0705,-0.0694,-0.0717,-0.0737,-0.0738,-0.0751,-0.0767,-0.0779,-0.0769,-0.078,-0.0798,-0.0777,-0.0773,-0.0756,-0.0751,-0.0746,-0.0711,-0.0702,-0.0805,-0.0805,-0.0805,-0.0805,0,-0.0555,-0.0577,-0.0585,-0.0604,-0.0625,-0.0636,-0.0667,-0.0688,-0.0711,-0.0722,-0.0732,-0.0751,-0.0746,-0.0769,-0.0779,-0.0759,-0.0754,-0.0768,-0.0741,-0.074,-0.0704,-0.0695,-0.0805,-0.0805,-0.0805,-0.0805,0,0,-0.0497,-0.0562,-0.0554,-0.0557,-0.0605,-0.0616,-0.0636,-0.0654,-0.065,-0.0683,-0.0656,-0.07,-0.0706,-0.0708,-0.0726,-0.071,-0.0672,-0.0721,-0.072,-0.0668,-0.06,-0.0552,-0.0537,-0.0682,-0.068,-0.0679,-0.0589,0,-0.0447,-0.0454,-0.0496,-0.0489,-0.0496,-0.055,-0.0561,-0.0591,-0.0621,-0.0611,-0.0635,-0.0625,-0.0684,-0.0671,-0.067,-0.0666,-0.0647,-0.0694,-0.0624,-0.0621,-0.0563,-0.0524,-0.0483,-0.0396,-0.058,-0.0579,-0.0578,0,-0.0392,-0.0418,-0.0419,-0.0449,-0.0449,-0.0448,-0.0481,-0.0492,-0.051,-0.0524,-0.0526,-0.0542,-0.0524,-0.0572,-0.0552,-0.0578,-0.0586,-0.059,-0.0587,-0.053,-0.0555,-0.0429,-0.0372,-0.0449,-0.0563,-0.0564,-0.0565,0,-0.0343,-0.0344,-0.0359,-0.0374,-0.0422,-0.0415,-0.0421,-0.0455,-0.0444,-0.0446,-0.0413,-0.0434,-0.0388,-0.0422,-0.0448,-0.049,-0.041,-0.0467,-0.043,-0.0427,-0.037,-0.0364,-0.0358,-0.0443,-0.0443,-0.0443,-0.0444,0,-0.0295,-0.0288,-0.033,-0.035,-0.0321,-0.0363,-0.0324,-0.0349,-0.0333,-0.0277,-0.0341,-0.0274,-0.0345,-0.032,-0.0387,-0.0357,-0.0358,-0.0396,-0.039,-0.0368,-0.0363,-0.041,-0.0469,-0.044,-0.0441,-0.0441,-0.0442,0,-0.0239,-0.0283,-0.0293,-0.0326,-0.0309,-0.0289,-0.0235,-0.0202,-0.021,-0.0125,-0.0106,-0.0108,-0.0068,-0.0144,-0.0158,-0.0229,-0.0261,-0.0242,-0.0206,-0.0196,-0.0247,-0.0306,-0.0244,-0.0276,-0.0178,-0.0176,-0.0175,0,-0.0215,-0.0226,-0.0258,-0.0239,-0.024,-0.0191,-0.0143,-0.014,-0.0087,-0.0007,0.0061,0.0116,0.0191,0.0178,0.0064,-0.0009,-0.0138,-0.005,-0.0131,-0.0211,-0.0273,-0.0318,-0.0355,-0.0057,-0.0055,-0.0053,-0.0051,0,-0.0162,-0.019,-0.0208,-0.0164,-0.0115,-0.0058,0.0024,0.0093,0.0129,0.0222,0.0364,0.0437,0.0434,0.0415,0.0289,0.0194,-0.0083,-0.0009,-0.01,-0.0167,-0.0205,-0.0244,-0.0162,-0.0034,-0.0035,-0.0037,-0.0038,-0.0038,-0.0107,-0.0099,-0.0116,-0.0057,-0.0011,0.008,0.0174,0.0283,0.0416,0.0582,0.0623,0.0784,0.0677,0.054,0.0389,0.013,0.0097,0.0033,-0.0026,-0.006,-0.0103,0.0031,0.0164,0.0163,0.0163,0.0162,0.0162,0,-0.0018,-0.0017,0.002,0.0059,0.0133,0.0145,0.0288,0.0402,0.0611,0.0783,0.0939,0.1025,0.0893,0.065,0.0324,0.0139,0.0018,0.0013,-0.007,-0.0106,0.0019,0.0008,0.0124,0.0124,0.0124,0.0124,0.0124,0.0124,0.0024,0.0067,0.0076,0.0193,0.0239,0.0371,0.0467,0.0637,0.0794,0.1057,0.1199,0.1279,0.1125,0.0557,0.0152,0.0033,-0.0139,-0.0126,-0.0228,-0.0188,-0.0193,-0.0198,-0.0223,-0.0157,-0.0157,-0.033,-0.0332,-0.0334]}],[{"header":{"parameterUnit":"m.s-1","parameterCategory":2,"la1":30.2991,"la2":30.254,"lo1":-89.0895,"lo2":-89.0444,"dx":0.0017,"dy":0.0017,"nx":28,"ny":28,"refTime":"2022-11-05T15:00:00:Z","depth":"2","parameterNumber":2,"parameterNumberName":"U-component_of_CURRENTS"},"data":[0,0,0,0,0,0,0,0,0,0,0,0,0,0,0,0,0,0,0,0,0,0,0,0,0,0,0,0,0,0,0,0,0,0,0,0,0,0,0,0,0,0,0,0,0,0,0,0,0,0,0,0,0,0,0,0,0,0,0.2079,0.2078,0,0.1981,0.198,0.1979,0.1907,0.1906,0.1905,0.1905,0.1969,0.1971,0.1974,0,0,0,0,0,0,0,0,0,0,0,0,0,0.2119,0.212,0.2079,0.2078,0.2076,0.1982,0.198,0.1979,0.1907,0.1906,0.1905,0.1904,0.1968,0.1971,0.1974,0,0,0,0,0,0,0,0,0,0,0,0,0,0.2071,0.212,0.2079,0.2028,0.2022,0.1982,0.198,0.1979,0.1907,0.1906,0.1905,0.1904,0.1967,0.1971,0.1974,0.2019,0,0,0.1985,0.1987,0,0,0,0,0,0,0,0,0.2074,0.207,0.2037,0.2032,0.2025,0.1954,0.2018,0.2,0.1907,0.1952,0.1905,0.1903,0.1979,0.1982,0.1965,0.2022,0.2025,0.1986,0.1988,0.1989,0.199,0,0,0,0,0,0,0,0.2078,0.2073,0.2042,0.2036,0.2028,0.1981,0.1974,0.2013,0.1977,0.1948,0.1942,0.193,0.1977,0.1962,0.1967,0.2026,0.1985,0.1989,0.1991,0.1992,0.2155,0.2157,0,0,0,0,0,0,0.2093,0.2077,0.2045,0.2039,0.2046,0.1982,0.1974,0.1979,0.1973,0.1969,0.1931,0.1927,0.1956,0.1962,0.1969,0.2042,0.1989,0.1993,0.1995,0.2153,0.2156,0.2158,0,0,0,0,0,0,0.2095,0.2092,0.2049,0.2053,0.2044,0.1983,0.1989,0.1978,0.1974,0.1958,0.1957,0.194,0.1955,0.1964,0.203,0.2043,0.1994,0.1998,0.2151,0.2154,0.2157,0.2177,0,0,0,0,0,0,0.2097,0.2094,0.2103,0.2055,0.2045,0.2025,0.1989,0.1977,0.1966,0.196,0.1966,0.1969,0.1955,0.2025,0.2034,0.2047,0.2,0.2148,0.2152,0.2156,0.2173,0.218,0.2186,0,0,0,0,0,0.2099,0.2088,0.2105,0.21,0.206,0.2025,0.2015,0.1967,0.1968,0.1963,0.199,0.1969,0.2056,0.2031,0.204,0.2055,0.2146,0.2151,0.2156,0.217,0.2179,0.2186,0,0,0,0,0,0,0.2077,0.2079,0.2095,0.208,0.2067,0.2012,0.1994,0.1988,0.2001,0.2013,0.201,0.2016,0.2079,0.208,0.2052,0.2117,0.2093,0.21,0.2101,0.2109,0.2116,0.2129,0.2003,0,0,0,0,0,0.2093,0.2104,0.2092,0.2082,0.2084,0.206,0.2043,0.2026,0.2026,0.2027,0.2042,0.2069,0.2105,0.2118,0.2151,0.2195,0.2204,0.221,0.2216,0.2221,0.2242,0.2282,0.2293,0.2174,0.2174,0.2174,0,0,0.2091,0.2082,0.2094,0.2083,0.2072,0.2075,0.2046,0.2032,0.2062,0.2042,0.2098,0.2108,0.213,0.2171,0.2197,0.2171,0.2257,0.2227,0.2231,0.2249,0.2288,0.2299,0.2309,0.2177,0.2177,0.2176,0,0,0.2086,0.2085,0.2112,0.2104,0.2099,0.2083,0.2094,0.2081,0.2107,0.217,0.216,0.2191,0.2245,0.2243,0.2257,0.2332,0.2304,0.2327,0.2352,0.239,0.2399,0.2408,0.2412,0.2421,0.2311,0.2311,0.2311,0,0.2094,0.2104,0.2106,0.2117,0.2112,0.21,0.2122,0.2145,0.2162,0.219,0.2202,0.2269,0.2287,0.2322,0.2335,0.2345,0.2346,0.2311,0.2396,0.2405,0.2413,0.2416,0.2425,0.2313,0.2312,0.2312,0.2312,0,0.2111,0.2119,0.2118,0.2149,0.2154,0.2146,0.2189,0.2205,0.2245,0.2268,0.2344,0.2373,0.2396,0.2399,0.2395,0.2442,0.2416,0.2409,0.2368,0.2426,0.2425,0.2435,0.2315,0.2314,0.2314,0.2313,0,0,0.2132,0.214,0.2145,0.216,0.2166,0.2169,0.2224,0.226,0.2296,0.2351,0.2408,0.2469,0.2465,0.2483,0.2468,0.2493,0.2546,0.2469,0.247,0.2458,0.2601,0.2504,0.2504,0.254,0.2542,0.2544,0.2567,0,0.2151,0.2166,0.2182,0.2206,0.2209,0.2217,0.2253,0.2293,0.2356,0.2405,0.2457,0.2522,0.2508,0.2519,0.2543,0.2556,0.2576,0.2539,0.2561,0.2562,0.2456,0.2515,0.2304,0.2301,0.2576,0.2578,0.2579,0,0.2166,0.2165,0.2193,0.2209,0.2221,0.2237,0.2275,0.2337,0.2398,0.2441,0.2496,0.2549,0.26,0.2597,0.2651,0.262,0.2623,0.2629,0.263,0.2545,0.2484,0.2295,0.2307,0.2595,0.2593,0.2592,0.2591,0,0.2128,0.2176,0.2192,0.2194,0.2212,0.2236,0.227,0.233,0.2391,0.2489,0.252,0.2592,0.2639,0.2676,0.2705,0.2682,0.2759,0.2727,0.264,0.2631,0.2463,0.2436,0.2783,0.2783,0.2783,0.2783,0.2782,0,0.2084,0.2096,0.2175,0.215,0.2192,0.2241,0.2301,0.2328,0.2398,0.2449,0.2552,0.2589,0.2669,0.2723,0.273,0.2713,0.2783,0.2664,0.2644,0.2461,0.2435,0.2704,0.2694,0.2783,0.2783,0.2783,0.2783,0,0.2011,0.2039,0.2086,0.2144,0.2153,0.2218,0.2297,0.2325,0.2405,0.2475,0.2511,0.2602,0.2654,0.2716,0.2771,0.2733,0.2742,0.2717,0.2482,0.2434,0.2574,0.2566,0.2616,0.2613,0.261,0.2608,0.2606,0,0.1971,0.1958,0.2085,0.211,0.2133,0.2214,0.2211,0.2298,0.2328,0.2465,0.2461,0.2573,0.2578,0.2625,0.2608,0.2601,0.2678,0.2396,0.2325,0.2589,0.2564,0.256,0.2555,0.2101,0.2096,0.2091,0.2087,0,0.188,0.1947,0.1969,0.2038,0.2073,0.2142,0.2166,0.2174,0.2271,0.2299,0.233,0.2375,0.2431,0.2324,0.2344,0.2315,0.2381,0.2297,0.2658,0.2174,0.2106,0.2081,0.2093,0.2045,0.2049,0.2053,0.2055,0.2056,0.1835,0.1868,0.1906,0.1965,0.199,0.202,0.2018,0.2031,0.2037,0.2043,0.2139,0.2109,0.2145,0.2041,0.1987,0.1962,0.2122,0.2024,0.2039,0.2058,0.1992,0.1923,0.1815,0.1817,0.182,0.1822,0.1824,0,0.1775,0.1784,0.1815,0.1858,0.1817,0.1913,0.1911,0.187,0.1806,0.1841,0.1828,0.1673,0.1604,0.1656,0.1545,0.1548,0.1539,0.1482,0.1453,0.1496,0.1534,0.1441,0.1117,0.1115,0.1113,0.1111,0,0,0.1734,0.1713,0.1724,0.1647,0.1666,0.1618,0.1613,0.1563,0.1547,0.1464,0.1418,0.1514,0.1585,0.1322,0.1296,0.1185,0.133,0.1135,0.1702,0.171,0.1745,0.1848,0.1753,0,0,0,0,0]},{"header":{"parameterUnit":"m.s-1","parameterCategory":2,"la1":30.2991,"la2":30.254,"lo1":-89.0895,"lo2":-89.0444,"dx":0.0017,"dy":0.0017,"nx":28,"ny":28,"refTime":"2022-11-05T15:00:00:Z","depth":"2","parameterNumber":3,"parameterNumberName":"V-component_of_CURRENTS"},"data":[0,0,0,0,0,0,0,0,0,0,0,0,0,0,0,0,0,0,0,0,0,0,0,0,0,0,0,0,0,0,0,0,0,0,0,0,0,0,0,0,0,0,0,0,0,0,0,0,0,0,0,0,0,0,0,0,0,0,0.0294,0.0294,0,0.031,0.0311,0.0311,0.0334,0.0334,0.0334,0.0334,0.0268,0.0266,0.0264,0,0,0,0,0,0,0,0,0,0,0,0,0,0.0273,0.0274,0.0294,0.0294,0.0294,0.031,0.0311,0.0311,0.0334,0.0334,0.0334,0.0334,0.0269,0.0266,0.0264,0,0,0,0,0,0,0,0,0,0,0,0,0,0.0288,0.0274,0.0294,0.0305,0.0306,0.031,0.0311,0.0311,0.0334,0.0334,0.0334,0.0334,0.0269,0.0267,0.0264,0.0245,0,0,0.0256,0.0254,0,0,0,0,0,0,0,0,0.0288,0.029,0.0303,0.0304,0.0305,0.0317,0.0279,0.0284,0.0334,0.0327,0.0334,0.0335,0.0274,0.0271,0.028,0.0242,0.0239,0.0255,0.0254,0.0252,0.0252,0,0,0,0,0,0,0,0.0287,0.0289,0.0304,0.0303,0.0304,0.0305,0.0308,0.028,0.0301,0.0328,0.0329,0.0325,0.0275,0.0283,0.0279,0.0238,0.0255,0.0253,0.0251,0.025,0.0192,0.0192,0,0,0,0,0,0,0.0278,0.0288,0.0304,0.0304,0.0292,0.0305,0.0308,0.0316,0.0303,0.0301,0.0324,0.0326,0.0288,0.0282,0.0276,0.0284,0.0252,0.025,0.0248,0.0192,0.0192,0.0192,0,0,0,0,0,0,0.0278,0.028,0.0303,0.0293,0.0295,0.0305,0.0314,0.0316,0.0327,0.0301,0.0298,0.0332,0.0288,0.028,0.0248,0.028,0.0249,0.0246,0.0192,0.0192,0.0192,0.0279,0,0,0,0,0,0,0.0277,0.028,0.0284,0.0293,0.0296,0.0321,0.0313,0.0316,0.0322,0.0324,0.0306,0.0301,0.0287,0.0252,0.0245,0.0276,0.0244,0.0192,0.0192,0.0192,0.0276,0.0282,0.0287,0,0,0,0,0,0.0277,0.0294,0.0284,0.0286,0.0301,0.0321,0.0324,0.0332,0.0323,0.034,0.031,0.0301,0.0249,0.0249,0.0241,0.0272,0.0192,0.0192,0.0192,0.0273,0.0281,0.0287,0,0,0,0,0,0,0.0298,0.0297,0.0288,0.0306,0.0313,0.0324,0.0336,0.0332,0.0326,0.0319,0.0292,0.0284,0.027,0.0247,0.0248,0.0253,0.0223,0.0222,0.0288,0.0294,0.03,0.0305,0.0242,0,0,0,0,0,0.0298,0.0308,0.0307,0.0323,0.0325,0.0326,0.0332,0.0336,0.0328,0.0327,0.0312,0.0286,0.0265,0.026,0.0235,0.0232,0.02,0.0247,0.0253,0.0258,0.0254,0.0216,0.0219,0.0193,0.0193,0.0193,0,0,0.0313,0.0311,0.0319,0.0327,0.0331,0.0351,0.0332,0.0348,0.0364,0.0316,0.0328,0.0298,0.0263,0.0265,0.0259,0.0252,0.0252,0.0258,0.0263,0.0256,0.0217,0.0219,0.0222,0.0193,0.0193,0.0193,0,0,0.0339,0.0343,0.0351,0.0366,0.0366,0.0372,0.0375,0.0382,0.0385,0.038,0.0352,0.0329,0.0308,0.0297,0.0284,0.0298,0.0275,0.0304,0.035,0.0314,0.0316,0.0317,0.0303,0.0302,0.0318,0.0319,0.0319,0,0.0346,0.0364,0.036,0.0377,0.0392,0.0383,0.0404,0.0413,0.041,0.041,0.0392,0.0348,0.0323,0.0316,0.0334,0.0313,0.0295,0.0334,0.0323,0.0323,0.0323,0.0308,0.0306,0.0323,0.0322,0.0322,0.0322,0,0.0384,0.0397,0.0411,0.0426,0.0446,0.0469,0.0475,0.0493,0.0484,0.048,0.046,0.0413,0.0388,0.0389,0.037,0.0369,0.0358,0.0328,0.0312,0.0331,0.0314,0.0311,0.0329,0.0327,0.0326,0.0325,0,0,0.0393,0.0423,0.0428,0.0443,0.0473,0.0496,0.0531,0.055,0.0568,0.0547,0.055,0.0515,0.048,0.046,0.0429,0.0409,0.0407,0.0385,0.0381,0.0382,0.0349,0.0329,0.0323,0.0382,0.0381,0.0381,0.0346,0,0.0413,0.0452,0.0463,0.0514,0.0537,0.0558,0.0601,0.0623,0.0617,0.0623,0.0567,0.055,0.051,0.0496,0.0469,0.0416,0.0398,0.042,0.0319,0.0316,0.0304,0.0318,0.0334,0.0302,0.0342,0.0342,0.0341,0,0.0447,0.0463,0.0513,0.0559,0.0572,0.0605,0.0664,0.0694,0.0706,0.0699,0.0663,0.0617,0.0582,0.0534,0.0452,0.0472,0.0419,0.0375,0.0371,0.0315,0.0288,0.0282,0.0294,0.0335,0.0335,0.0336,0.0336,0,0.048,0.0502,0.0542,0.0566,0.0621,0.0647,0.0674,0.0714,0.0751,0.0732,0.0743,0.0673,0.0642,0.0557,0.0471,0.0465,0.0378,0.0349,0.0278,0.0277,0.0249,0.0246,0.0282,0.0282,0.0282,0.0282,0.0282,0,0.0523,0.055,0.0553,0.0596,0.0632,0.0666,0.0716,0.0744,0.0786,0.0832,0.0768,0.0773,0.0647,0.0584,0.0492,0.0381,0.0387,0.0285,0.0262,0.0282,0.0282,0.0267,0.0266,0.0281,0.0281,0.0281,0.0281,0,0.0574,0.0585,0.0629,0.0663,0.0661,0.0697,0.0749,0.0801,0.0829,0.0881,0.0883,0.0855,0.0775,0.0649,0.0519,0.0416,0.0306,0.0263,0.0307,0.0288,0.0227,0.023,0.0178,0.0177,0.0176,0.0175,0.0174,0,0.0602,0.0635,0.0673,0.069,0.0699,0.0729,0.0774,0.0819,0.0881,0.0937,0.0978,0.092,0.0889,0.0688,0.0508,0.0336,0.0309,0.0222,0.0195,0.0231,0.0213,0.0218,0.0223,0.0204,0.0204,0.0204,0.0203,0,0.0649,0.0674,0.0724,0.0752,0.0781,0.0813,0.0867,0.0923,0.1,0.1051,0.1106,0.1082,0.0905,0.0733,0.0494,0.0371,0.0247,0.0209,0.0229,0.0225,0.0252,0.0236,0.024,0.0201,0.0201,0.0201,0.0201,0.0202,0.0681,0.0717,0.0781,0.0807,0.0855,0.0903,0.0935,0.101,0.1106,0.1178,0.1175,0.1129,0.0955,0.0638,0.0448,0.0234,0.0244,0.015,0.0153,0.0155,0.0162,0.0184,0.0124,0.0124,0.0123,0.0123,0.0123,0,0.0697,0.0747,0.0806,0.0865,0.0933,0.0929,0.1015,0.1055,0.115,0.1197,0.1219,0.1033,0.0859,0.0652,0.0349,0.017,0.0157,0.0094,0.0128,0.0132,0.0135,0.0141,0.0097,0.0097,0.0096,0.0096,0,0,0.071,0.077,0.0806,0.0904,0.0953,0.1013,0.1053,0.1111,0.1157,0.1176,0.115,0.1111,0.0897,0.0666,0.0442,0.0271,0.0231,0.0223,0.0263,0.0335,0.034,0.0189,0.0205,0,0,0,0,0]}],[{"header":{"parameterUnit":"m.s-1","parameterCategory":2,"la1":30.2991,"la2":30.254,"lo1":-89.0895,"lo2":-89.0444,"dx":0.0017,"dy":0.0017,"nx":28,"ny":28,"refTime":"2022-11-05T15:00:00:Z","depth":"4","parameterNumber":2,"parameterNumberName":"U-component_of_CURRENTS"},"data":[0,0,0,0,0,0,0,0,0,0,0,0,0,0,0,0,0,0,0,0,0,0,0,0,0,0,0,0,0,0,0,0,0,0,0,0,0,0,0,0,0,0,0,0,0,0,0,0,0,0,0,0,0,0,0,0,0,0,0.0972,0.0973,0,0.1005,0.1004,0.1004,0.1016,0.1016,0.1017,0.1017,0.1073,0.1074,0.1075,0,0,0,0,0,0,0,0,0,0,0,0,0,0.0948,0.0948,0.0972,0.0973,0.0974,0.1005,0.1004,0.1004,0.1016,0.1016,0.1017,0.1017,0.1073,0.1074,0.1075,0,0,0,0,0,0,0,0,0,0,0,0,0,0.0962,0.0948,0.0972,0.0988,0.099,0.1005,0.1004,0.1004,0.1016,0.1016,0.1017,0.1018,0.1072,0.1074,0.1075,0.1072,0,0,0.108,0.1081,0,0,0,0,0,0,0,0,0.0961,0.0962,0.0985,0.0987,0.099,0.1012,0.1017,0.103,0.1016,0.1,0.1017,0.1018,0.1058,0.1061,0.1057,0.1074,0.1077,0.108,0.1081,0.1082,0.1083,0,0,0,0,0,0,0,0.096,0.0961,0.0979,0.0986,0.0989,0.1004,0.1005,0.1019,0.1021,0.1001,0.1004,0.1017,0.1059,0.1055,0.1058,0.1078,0.108,0.1082,0.1083,0.1083,0.1183,0.1184,0,0,0,0,0,0,0.0966,0.0959,0.0978,0.098,0.0984,0.1004,0.1005,0.0999,0.102,0.1025,0.1016,0.1017,0.1052,0.1056,0.106,0.1117,0.1082,0.1084,0.1085,0.1181,0.1183,0.1185,0,0,0,0,0,0,0.0965,0.0966,0.0977,0.0977,0.098,0.1004,0.0997,0.1,0.102,0.1032,0.1037,0.1037,0.1053,0.1058,0.1096,0.1117,0.1084,0.1086,0.1179,0.1182,0.1184,0.1193,0,0,0,0,0,0,0.0963,0.0965,0.0973,0.0976,0.0981,0.099,0.0997,0.1,0.1029,0.1031,0.1052,0.1056,0.1054,0.1093,0.1097,0.1119,0.1087,0.1177,0.118,0.1183,0.119,0.1195,0.1199,0,0,0,0,0,0.0962,0.0964,0.0973,0.0977,0.0987,0.0991,0.0993,0.101,0.103,0.1032,0.1059,0.1056,0.1116,0.1096,0.11,0.1123,0.1175,0.1179,0.1183,0.1188,0.1194,0.1199,0,0,0,0,0,0,0.095,0.0966,0.0976,0.0981,0.0992,0.0996,0.1011,0.1024,0.1046,0.1059,0.1071,0.1077,0.1121,0.1126,0.1102,0.1164,0.1149,0.1153,0.1151,0.1157,0.1162,0.1178,0.1088,0,0,0,0,0,0.0954,0.0965,0.0975,0.0982,0.0991,0.1007,0.1019,0.1027,0.1045,0.1056,0.1078,0.1108,0.1135,0.1149,0.1171,0.1198,0.1215,0.1221,0.1225,0.1229,0.1248,0.1294,0.1304,0.1197,0.1197,0.1197,0,0,0.0948,0.0965,0.0968,0.0983,0.0995,0.1008,0.1014,0.1032,0.105,0.106,0.1102,0.1126,0.115,0.1182,0.1202,0.1189,0.1266,0.1234,0.1236,0.1254,0.1299,0.1309,0.1319,0.12,0.1199,0.1199,0,0,0.0953,0.0961,0.0978,0.0988,0.1018,0.1022,0.1035,0.1054,0.107,0.1104,0.1127,0.117,0.1203,0.1225,0.124,0.1287,0.1293,0.1298,0.1326,0.137,0.1379,0.1387,0.1403,0.1413,0.1294,0.1294,0.1294,0,0.0961,0.0969,0.0982,0.1005,0.1017,0.1034,0.1047,0.1063,0.1095,0.1121,0.1122,0.1213,0.1224,0.1281,0.1295,0.1296,0.1317,0.1295,0.1375,0.1383,0.1392,0.1406,0.1417,0.1295,0.1295,0.1295,0.1295,0,0.0966,0.0988,0.0998,0.1031,0.1041,0.1052,0.1073,0.1101,0.1129,0.1152,0.1223,0.1248,0.1309,0.1313,0.1315,0.1387,0.1381,0.1376,0.1355,0.1403,0.1415,0.1426,0.1296,0.1296,0.1296,0.1295,0,0,0.0956,0.0996,0.1003,0.1025,0.1053,0.106,0.1096,0.1131,0.1175,0.1215,0.1275,0.1326,0.1364,0.1387,0.1405,0.1435,0.1493,0.1433,0.1435,0.1438,0.1581,0.1463,0.1463,0.1505,0.1507,0.1509,0.1559,0,0.0965,0.0999,0.1016,0.1049,0.1066,0.1091,0.1124,0.1163,0.1202,0.1263,0.1312,0.1377,0.1385,0.1423,0.1462,0.1497,0.1526,0.1479,0.1546,0.1547,0.1428,0.1474,0.1517,0.1567,0.1569,0.1571,0.1572,0,0.0965,0.0993,0.1013,0.1068,0.1078,0.1107,0.1163,0.1194,0.1277,0.1315,0.1396,0.1438,0.1519,0.1504,0.1602,0.1576,0.1592,0.16,0.1602,0.1502,0.145,0.1517,0.1591,0.159,0.1589,0.1587,0.1586,0,0.0933,0.0994,0.1006,0.1017,0.1074,0.111,0.1153,0.1224,0.1263,0.1366,0.1415,0.1512,0.1575,0.1623,0.166,0.1644,0.1739,0.1713,0.1619,0.161,0.1695,0.1686,0.1778,0.1778,0.1778,0.1778,0.1777,0,0.0912,0.0945,0.1006,0.1008,0.106,0.1109,0.1175,0.1231,0.132,0.1371,0.1458,0.1515,0.1614,0.1673,0.1688,0.169,0.1772,0.1639,0.1624,0.1695,0.1686,0.1701,0.1692,0.1779,0.1779,0.1779,0.1778,0,0.0873,0.0904,0.0935,0.1003,0.1041,0.1076,0.1189,0.1235,0.1329,0.14,0.1438,0.155,0.1625,0.1689,0.1761,0.1718,0.1726,0.1702,0.1772,0.1758,0.1556,0.1547,0.16,0.1596,0.1593,0.1591,0.1588,0,0.0853,0.0858,0.0915,0.094,0.0982,0.1063,0.1118,0.1228,0.1273,0.1402,0.1424,0.1536,0.1598,0.1613,0.1682,0.1702,0.1681,0.1666,0.1613,0.1562,0.1543,0.1539,0.1534,0.1584,0.1583,0.1582,0.1581,0,0.0821,0.0834,0.0847,0.0892,0.095,0.1005,0.11,0.1128,0.1238,0.1337,0.1382,0.1419,0.1496,0.1546,0.1578,0.1585,0.1665,0.1634,0.164,0.159,0.1543,0.1526,0.1525,0.1571,0.1572,0.1573,0.1574,0,0.0801,0.0797,0.0806,0.0842,0.0897,0.0927,0.099,0.1056,0.1115,0.1253,0.1266,0.1377,0.148,0.1485,0.1512,0.1516,0.1487,0.1425,0.1441,0.1453,0.1381,0.1299,0.1251,0,0,0,0,0,0.0781,0.0767,0.0777,0.0787,0.0824,0.0868,0.0961,0.1022,0.1137,0.1132,0.1195,0.1252,0.1297,0.1357,0.1332,0.1444,0.1491,0.1406,0.1428,0.1513,0.1525,0.1453,0,0,0,0,0,0,0.0766,0.0771,0.0751,0.0728,0.0734,0.0779,0.0837,0.0915,0.0924,0.1042,0.1082,0.1163,0.1237,0.13,0.1305,0.1321,0.1304,0.1476,0.1472,0.1506,0.1517,0.1527,0.1457,0,0,0,0,0]},{"header":{"parameterUnit":"m.s-1","parameterCategory":2,"la1":30.2991,"la2":30.254,"lo1":-89.0895,"lo2":-89.0444,"dx":0.0017,"dy":0.0017,"nx":28,"ny":28,"refTime":"2022-11-05T15:00:00:Z","depth":"4","parameterNumber":3,"parameterNumberName":"V-component_of_CURRENTS"},"data":[0,0,0,0,0,0,0,0,0,0,0,0,0,0,0,0,0,0,0,0,0,0,0,0,0,0,0,0,0,0,0,0,0,0,0,0,0,0,0,0,0,0,0,0,0,0,0,0,0,0,0,0,0,0,0,0,0,0,0.0307,0.0307,0,0.0308,0.0309,0.0309,0.0324,0.0324,0.0325,0.0325,0.0326,0.0325,0.0325,0,0,0,0,0,0,0,0,0,0,0,0,0,0.0296,0.0297,0.0307,0.0307,0.0307,0.0308,0.0309,0.0309,0.0324,0.0324,0.0325,0.0325,0.0326,0.0325,0.0325,0,0,0,0,0,0,0,0,0,0,0,0,0,0.0302,0.0297,0.0307,0.0313,0.0313,0.0308,0.0309,0.0309,0.0324,0.0324,0.0325,0.0325,0.0326,0.0325,0.0325,0.032,0,0,0.0325,0.0325,0,0,0,0,0,0,0,0,0.0302,0.0303,0.0312,0.0312,0.0313,0.0314,0.0305,0.0312,0.0324,0.0323,0.0325,0.0325,0.032,0.032,0.0324,0.032,0.032,0.0325,0.0325,0.0325,0.0325,0,0,0,0,0,0,0,0.0301,0.0303,0.031,0.0312,0.0312,0.0307,0.0309,0.0306,0.0322,0.0323,0.0323,0.0319,0.032,0.0324,0.0324,0.032,0.0325,0.0325,0.0325,0.0324,0.0331,0.0331,0,0,0,0,0,0,0.0297,0.0303,0.031,0.031,0.0305,0.0307,0.0309,0.0316,0.0322,0.0323,0.0319,0.032,0.0324,0.0324,0.0324,0.0348,0.0325,0.0324,0.0324,0.0331,0.0331,0.0331,0,0,0,0,0,0,0.0297,0.0298,0.031,0.0303,0.0304,0.0307,0.0314,0.0315,0.0326,0.0319,0.032,0.0329,0.0324,0.0324,0.0332,0.0347,0.0324,0.0324,0.033,0.0331,0.0331,0.0377,0,0,0,0,0,0,0.0297,0.0298,0.0308,0.0304,0.0305,0.0319,0.0314,0.0315,0.0322,0.0323,0.0327,0.0327,0.0324,0.0332,0.0331,0.0346,0.0324,0.033,0.033,0.0331,0.0375,0.0379,0.0382,0,0,0,0,0,0.0297,0.031,0.0308,0.0309,0.0316,0.0319,0.032,0.0323,0.0322,0.0333,0.0334,0.0328,0.0335,0.0332,0.0331,0.0347,0.033,0.033,0.0331,0.0374,0.0378,0.0382,0,0,0,0,0,0,0.0309,0.0312,0.0311,0.0324,0.0325,0.0321,0.0332,0.0328,0.0337,0.0339,0.0333,0.0333,0.0345,0.0336,0.0333,0.0348,0.033,0.0331,0.0363,0.0367,0.0371,0.0373,0.0324,0,0,0,0,0,0.0314,0.0328,0.0324,0.0334,0.0339,0.0335,0.0338,0.0337,0.0338,0.0343,0.0346,0.0345,0.0345,0.0349,0.0348,0.0357,0.0331,0.0364,0.0368,0.0371,0.0371,0.0344,0.0346,0.0333,0.0333,0.0333,0,0,0.0321,0.0323,0.0331,0.0338,0.0341,0.0353,0.034,0.0347,0.0357,0.034,0.0365,0.0358,0.0349,0.0363,0.0367,0.0359,0.036,0.0372,0.0375,0.0373,0.0345,0.0346,0.0347,0.0334,0.0334,0.0334,0,0,0.0337,0.0346,0.0362,0.0366,0.0368,0.0368,0.0372,0.0374,0.0382,0.0393,0.0384,0.0385,0.0392,0.0389,0.0387,0.0406,0.0379,0.0407,0.0431,0.0405,0.0406,0.0406,0.0373,0.037,0.0411,0.0411,0.0411,0,0.0342,0.0363,0.0366,0.0379,0.0388,0.0378,0.0395,0.0401,0.0404,0.041,0.0408,0.0412,0.0404,0.0413,0.0421,0.0415,0.0392,0.0419,0.041,0.041,0.0409,0.0375,0.0372,0.0413,0.0413,0.0413,0.0412,0,0.0371,0.0386,0.0397,0.0415,0.0426,0.0438,0.0442,0.0455,0.0459,0.0456,0.0468,0.0458,0.0459,0.0457,0.0447,0.0445,0.0427,0.0417,0.0401,0.0414,0.0377,0.0372,0.0416,0.0416,0.0415,0.0414,0,0,0.0381,0.0412,0.0417,0.0432,0.0446,0.0458,0.0481,0.0496,0.0513,0.0511,0.0528,0.0523,0.0511,0.0506,0.0492,0.0471,0.0447,0.0447,0.0445,0.0417,0.0384,0.0355,0.0347,0.0437,0.0437,0.0437,0.0359,0,0.0401,0.0438,0.0449,0.0484,0.0504,0.051,0.0535,0.0544,0.0552,0.0565,0.0546,0.0555,0.0532,0.0536,0.0511,0.0464,0.0437,0.0469,0.0373,0.037,0.0345,0.0341,0.0435,0.0355,0.0354,0.0353,0.0352,0,0.0427,0.0446,0.0491,0.0523,0.0535,0.0556,0.0595,0.0617,0.0625,0.0629,0.0624,0.0606,0.0582,0.056,0.0482,0.0504,0.0448,0.0406,0.0402,0.0355,0.0332,0.0339,0.0343,0.0344,0.0344,0.0345,0.0346,0,0.0438,0.0476,0.0518,0.053,0.0566,0.059,0.0614,0.0636,0.0664,0.067,0.0678,0.0643,0.063,0.0559,0.0471,0.0477,0.0373,0.0368,0.0287,0.0284,0.0314,0.0314,0.0307,0.0307,0.0308,0.0308,0.0308,0,0.0454,0.0483,0.0529,0.0548,0.06,0.0617,0.0671,0.0688,0.0714,0.074,0.0714,0.0712,0.0629,0.0561,0.0477,0.0362,0.0374,0.0285,0.0262,0.0334,0.0338,0.031,0.0311,0.0305,0.0305,0.0306,0.0307,0,0.046,0.0491,0.054,0.0589,0.0608,0.0652,0.0712,0.0744,0.0765,0.0796,0.0799,0.0761,0.0673,0.0573,0.045,0.0372,0.0265,0.022,0.0297,0.028,0.0191,0.0196,0.0124,0.0123,0.0121,0.012,0.0119,0,0.0467,0.0492,0.0572,0.0609,0.0635,0.0695,0.0733,0.0772,0.0801,0.0819,0.0826,0.0763,0.0717,0.0519,0.0416,0.0246,0.0223,0.0159,0.0182,0.0188,0.0172,0.0179,0.0185,0.0117,0.0117,0.0116,0.0116,0,0.0469,0.0509,0.0553,0.0629,0.0682,0.0743,0.0792,0.0814,0.0852,0.0869,0.0834,0.0745,0.0642,0.0506,0.0373,0.0254,0.0197,0.0144,0.0146,0.0167,0.0178,0.0165,0.0173,0.0111,0.0112,0.0112,0.0112,0,0.0478,0.0512,0.0576,0.0642,0.0711,0.0763,0.0795,0.0813,0.0844,0.0852,0.0834,0.0737,0.0688,0.0509,0.0386,0.0265,0.0238,0.0192,0.0192,0.0196,0.0241,0.0266,0.0202,0,0,0,0,0,0.048,0.0514,0.0575,0.065,0.0717,0.0757,0.0819,0.0844,0.0869,0.0842,0.084,0.0743,0.0569,0.0502,0.0375,0.0359,0.0218,0.0205,0.0164,0.0084,0.0089,0.0128,0,0,0,0,0,0,0.0482,0.0539,0.0569,0.0639,0.0685,0.0757,0.0798,0.082,0.0804,0.0813,0.0725,0.0694,0.053,0.0637,0.0367,0.0334,0.0284,0.0134,0.0131,0.008,0.0085,0.009,0.0131,0,0,0,0,0]}]]